This is the latest recevied weather packets stored in our database for station/object KV4OP. If no packets are shown the sender has not sent any weather packets the latest 10 day(s).
| Time | Temp. | Humidity | Pressure | Rain* | Wind** | Luminosity | Snow |
|---|---|---|---|---|---|---|---|
| 1778085614 | 30.56° C | 53% | 1017.7 hPa | 0 mm | - | - | - |
| 1778085316 | 30.56° C | 54% | 1017.8 hPa | 0 mm | - | - | - |
| 1778085015 | 30.56° C | 52% | 1017.7 hPa | 0 mm | - | - | - |
| 1778084712 | 30.56° C | 54% | 1017.8 hPa | 0 mm | - | - | - |
| 1778084414 | 30.56° C | 52% | 1017.8 hPa | 0 mm | - | - | - |
| 1778084113 | 30.56° C | 54% | 1017.8 hPa | 0 mm | - | - | - |
| 1778083811 | 30° C | 57% | 1017.8 hPa | 0 mm | - | - | - |
| 1778083511 | 30° C | 58% | 1017.8 hPa | 0 mm | - | - | - |
| 1778083211 | 30° C | 55% | 1017.7 hPa | 0 mm | - | - | - |
| 1778082910 | 30° C | 55% | 1017.9 hPa | 0 mm | - | - | - |
| 1778082611 | 30° C | 56% | 1017.8 hPa | 0 mm | - | - | - |
| 1778082310 | 30° C | 54% | 1017.9 hPa | 0 mm | - | - | - |
| 1778082009 | 30.56° C | 54% | 1017.9 hPa | 0 mm | - | - | - |
| 1778081708 | 30° C | 57% | 1017.9 hPa | 0 mm | - | - | - |
| 1778081409 | 29.44° C | 55% | 1017.9 hPa | 0 mm | - | - | - |
| 1778081106 | 29.44° C | 57% | 1017.9 hPa | 0 mm | - | - | - |
| 1778080805 | 29.44° C | 59% | 1017.9 hPa | 0 mm | - | - | - |
| 1778080505 | 29.44° C | 61% | 1018 hPa | 0 mm | - | - | - |
| 1778080209 | 28.89° C | 59% | 1018 hPa | 0 mm | - | - | - |
| 1778079904 | 28.89° C | 62% | 1018.2 hPa | 0 mm | - | - | - |
| 1778079603 | 28.89° C | 60% | 1018 hPa | 0 mm | - | - | - |
| 1778079302 | 28.33° C | 62% | 1018 hPa | 0 mm | - | - | - |
| 1778079001 | 28.33° C | 64% | 1018 hPa | 0 mm | - | - | - |
| 1778078701 | 27.78° C | 64% | 1018 hPa | 0 mm | - | - | - |
| 1778078460 | 27.78° C | 64% | 1018 hPa | 0 mm | - | - | - |
* Rain latest hour (hover to see other rain measurements)
** Current wind speed in m/s (hover to see current wind gust speed)